KC2ASA Weather Reports


Display with metric or nautical units.
time (UTC)temp
F
wind
direction
speed
MPH
gust
MPH
rain 1hr
in
rain 24hr
in
rain mn
in
humidity
%
barometer
mb
20260831203010 72 218 0.0 0.0 0.00 0.00 0.00 88 1018.7
20260831201510 72 218 0.0 0.0 0.00 0.00 0.00 87 1018.6
20260831200011 73 224 0.0 1.0 0.00 0.00 0.00 88 1018.7
20260831194507 73 224 0.0 1.0 0.00 0.00 0.00 87 1019.0
20260831193008 75 224 0.0 0.0 0.00 0.00 0.00 83 1019.2
20260831191508 76 224 0.0 1.0 0.00 0.00 0.00 78 1019.2
20260831190007 76 224 0.0 2.0 0.00 0.00 0.00 75 1019.4
20260831184505 77 224 0.0 0.0 0.00 0.00 0.00 73 1019.5
20260831183005 78 224 0.0 2.0 0.00 0.00 0.00 72 1019.5
20260831181505 79 228 0.0 1.0 0.00 0.00 0.00 71 1019.6
20260831180009 79 229 0.0 1.0 0.00 0.00 0.00 68 1019.6
20260831174503 79 229 0.0 1.0 0.00 0.00 0.00 68 1019.7
20260831173005 78 218 0.0 1.0 0.00 0.00 0.00 69 1019.9
20260831171503 78 219 0.0 1.0 0.00 0.00 0.00 68 1019.9
20260831170003 79 219 0.0 2.0 0.00 0.00 0.00 68 1019.9
20260831164501 78 218 0.0 2.0 0.00 0.00 0.00 69 1020.1
20260831163001 78 19 0.0 2.0 0.00 0.00 0.00 68 1020.1
20260831161501 78 43 1.0 2.0 0.00 0.00 0.00 67 1020.1
20260831160103 78 214 0.0 2.0 0.00 0.00 0.00 70 1020.2
20260831154600 78 245 0.0 1.0 0.00 0.00 0.00 68 1020.3
20260831153058 78 346 0.0 3.0 0.00 0.00 0.00 68 1020.5
20260831151601 78 169 0.0 2.0 0.00 0.00 0.00 67 1020.5
20260831150057 77 215 0.0 3.0 0.00 0.00 0.00 72 1020.5
20260831144551 75 222 0.0 1.0 0.00 0.00 0.00 75 1020.4
20260831143104 74 23 0.0 4.0 0.00 0.00 0.00 76 1020.6
20260831141549 74 36 0.0 3.0 0.00 0.00 0.00 78 1020.7
20260831140049 73 30 1.0 3.0 0.00 0.00 0.00 81 1020.6
20260831134545 74 195 0.0 0.0 0.00 0.00 0.00 82 1020.6
20260831133043 74 191 0.0 1.0 0.00 0.00 0.00 84 1020.5
20260831131538 70 196 0.0 1.0 0.00 0.00 0.00 93 1020.4
20260831130037 69 216 0.0 0.0 0.00 0.00 0.00 96 1020.6
20260831124532 68 215 0.0 0.0 0.00 0.00 0.00 97 1020.4
20260831123029 67 215 0.0 0.0 0.00 0.00 0.00 97 1020.5
20260831121528 67 216 0.0 0.0 0.00 0.00 0.00 98 1020.6
20260831120025 0 0.0 0.0 0.00 0.00 0.00 1020.5
20260831114534 0 0.0 0.0 0.00 0.00 0.00 1020.5
20260831113015 0 0.0 0.0 0.00 0.00 0.00 1020.1
20260831111513 0 0.0 0.0 0.00 0.00 0.00 1020.2
20260831110007 0 0.0 0.0 0.00 0.00 0.00 1020.0
20260831104502 0 0.0 0.0 0.00 0.00 0.00 1020.0
20260831103058 0 0.0 0.0 0.00 0.00 0.00 1019.9
20260831101556 0 0.0 0.0 0.00 0.00 0.00 1019.6
20260831100048 0 0.0 0.0 0.00 0.00 0.00 1019.7
20260831094545 0 0.0 0.0 0.00 0.00 0.00 1019.6
20260831093041 0 0.0 0.0 0.00 0.00 0.00 1019.3
20260831091545 0 0.0 0.0 0.00 0.00 0.00 1019.4
20260831090032 0 0.0 0.0 0.00 0.00 0.00 1019.4
20260831084527 0 0.0 0.0 0.00 0.00 0.00 1019.2
20260831083023 0 0.0 0.0 0.00 0.00 0.00 1019.3
20260831081519 0 0.0 0.0 0.00 0.00 0.00 1019.2
20260831080015 0 0.0 0.0 0.00 0.00 0.00 1019.2
20260831074510 0 0.0 0.0 0.00 0.00 0.00 1019.2
20260831073007 0 0.0 0.0 0.00 0.00 0.00 1019.3
20260831071502 0 0.0 0.0 0.00 0.00 0.00 1019.3
20260831070059 0 0.0 0.0 0.00 0.00 0.00 1019.3
20260831064606 0 0.0 0.0 0.00 0.00 0.00 1019.5
20260831063049 0 0.0 0.0 0.00 0.00 0.00 1019.4
20260831061545 0 0.0 0.0 0.00 0.00 0.00 1019.2
20260831060039 0 0.0 0.0 0.00 0.00 0.00 1019.2
20260831054536 0 0.0 0.0 0.00 0.00 0.00 1019.3
20260831053031 0 0.0 0.0 0.00 0.00 0.00 1019.2
20260831051533 0 0.0 0.0 0.00 0.00 0.00 1019.2
20260831050022 0 0.0 0.0 0.00 0.00 0.00 1019.1
20260831044518 0 0.0 0.0 0.00 0.00 0.00 1019.3
20260831043013 0 0.0 0.0 0.00 0.00 0.00 1019.3
20260831041510 0 0.0 0.0 0.00 0.00 0.00 1019.1
20260831040011 0 0.0 0.0 0.00 0.00 0.00 1018.8
20260831034606 0 0.0 0.0 0.00 0.00 0.00 1019.0
20260831033100 0 0.0 0.0 0.00 0.00 0.00 1019.0
20260831031552 0 0.0 0.0 0.00 0.00 0.00 1019.0
20260831030053 69 215 0.0 0.0 0.00 0.00 0.00 95 1018.9
20260831024549 70 215 0.0 0.0 0.00 0.00 0.00 95 1019.3
20260831023048 70 215 0.0 0.0 0.00 0.00 0.00 95 1019.3
20260831021549 70 215 0.0 0.0 0.00 0.00 0.00 95 1019.3
20260831020048 70 215 0.0 0.0 0.00 0.00 0.00 95 1019.3
20260831014547 70 215 0.0 0.0 0.00 0.00 0.00 95 1019.3
20260831013054 70 216 0.0 0.0 0.00 0.00 0.00 95 1019.2
20260831011548 70 215 0.0 0.0 0.00 0.00 0.00 94 1019.0
20260831010045 70 215 0.0 0.0 0.00 0.00 0.00 94 1019.0
20260831004545 70 215 0.0 0.0 0.00 0.00 0.00 94 1018.8
20260831003047 71 215 0.0 0.0 0.00 0.00 0.00 93 1018.6
20260831001544 71 215 0.0 0.0 0.00 0.00 0.00 93 1018.4
20260831000044 71 215 0.0 0.0 0.00 0.00 0.00 93 1018.3
20260830234547 72 216 0.0 0.0 0.00 0.00 0.00 92 1018.1
20260830233042 72 217 0.0 0.0 0.00 0.00 0.00 91 1017.9
20260830231556 73 217 0.0 0.0 0.00 0.00 0.00 90 1017.8
20260830230046 73 217 0.0 0.0 0.00 0.00 0.00 90 1017.8
20260830224550 74 217 0.0 0.0 0.00 0.00 0.00 89 1017.8
20260830223040 74 217 0.0 0.0 0.00 0.00 0.00 88 1017.9
20260830221541 75 217 0.0 0.0 0.00 0.00 0.00 87 1017.9
20260830220039 75 217 0.0 0.0 0.00 0.00 0.00 85 1017.9
20260830214539 76 217 0.0 0.0 0.00 0.00 0.00 84 1017.9
20260830213038 77 217 0.0 0.0 0.00 0.00 0.00 82 1017.9
20260830211538 77 217 0.0 1.0 0.00 0.00 0.00 81 1017.7
20260830210037 77 215 0.0 2.0 0.00 0.00 0.00 82 1017.8
20260830204538 77 216 0.0 4.0 0.00 0.00 0.00 81 1017.8